Weather History for Eilat, Israel

Change the Weather History Date:

Sunday, December 30, 2012

  Actual Average Record
Temperature  
Mean Temperature 60 °F -  
Max Temperature 71 °F 68 °F 82 °F (2004)
Min Temperature 49 °F 51 °F 42 °F (2006)
Degree Days  
Heating Degree Days 5    
Growing Degree Days 10 (Base 50)    
Moisture  
Dew Point 46 °F    
Average Humidity 54    
Maximum Humidity 82    
Minimum Humidity 26    
Precipitation  
Precipitation 0.00 in 0.01 in - ()
Sea Level Pressure  
Sea Level Pressure 30.06 in    
Wind  
Wind Speed 10 mph ()    
Max Wind Speed 21 mph    
Max Gust Speed -    
Averages and records for this station are not official NWS values.
T = Trace of Precipitation, MM = Missing Value Source: Averaged Metar Reports

Daily Weather History Graph

Daily Weather History Graph

Search for Another Location

Airport:

Trip Planner

Search our weather history database for the weather conditions in past years. The results will help you decide how hot, cold, wet, or windy it might be!

Date:

Astronomy

Dec. 30, 2012 Rise Set
Actual Time 6:34 AM IST 4:51 PM IST
Civil Twilight 6:08 AM IST 5:17 PM IST
Nautical Twilight 5:38 AM IST 5:47 PM IST
Astronomical Twilight 5:09 AM IST 6:16 PM IST
Moon 6:51 PM IST (12/30) 7:40 AM IST (12/30)
Length of Visible Light 11h 09m
Length of Day
10h 16m
Waning Gibbous, 96% of the Moon is Illuminated
Dec 30
Waning Gibbous
Jan 5
Last Quarter
Jan 11
New
Jan 19
First Quarter
Jan 27
Full

Hourly Weather History & Observations

Time (IST) Temp. Dew Point Humidity Pressure Visibility Wind Dir Wind Speed Gust Speed Precip Events Conditions
2:00 AM 55 °F 44 °F 56% 30.06 in - NNE 6.9 mph - -  
5:50 AM 53.6 °F 46.4 °F 77% 30.06 in - NE 5.8 mph - N/A   Clear
6:50 AM 50.0 °F 44.6 °F 82% 30.09 in - NE 5.8 mph - N/A   Clear
7:50 AM 55.4 °F 48.2 °F 77% 30.09 in - NE 5.8 mph - N/A   Clear
8:00 AM 55 °F 46 °F 64% 30.11 in - ENE 4.6 mph - -  
8:50 AM 57.2 °F 48.2 °F 72% 30.12 in - NNE 10.4 mph - N/A   Clear
9:50 AM 62.6 °F 48.2 °F 59% 30.09 in - NNE 16.1 mph - N/A   Clear
10:50 AM 66.2 °F 50.0 °F 56% 30.09 in - NNE 17.3 mph - N/A   Clear
11:50 AM 68.0 °F 48.2 °F 49% 30.06 in - NNE 18.4 mph - N/A   Clear
12:50 PM 69.8 °F 46.4 °F 43% 30.04 in - NE 17.3 mph - N/A   Clear
1:50 PM 71.6 °F 44.6 °F 38% 30.01 in - NNE 19.6 mph - N/A   Clear
2:00 PM 71 °F 44 °F 26% 30.03 in - NNE 8.1 mph - -  
2:50 PM 71.6 °F 44.6 °F 38% 30.01 in - NNE 18.4 mph - N/A   Clear
3:50 PM 71.6 °F 41.0 °F 33% 30.01 in - NNE 20.7 mph - N/A   Clear
4:50 PM 68.0 °F 44.6 °F 43% 30.04 in - NNE 18.4 mph - N/A   Clear
5:50 PM 66.2 °F 44.6 °F 46% 30.04 in - NNE 17.3 mph - N/A   Clear
6:50 PM 64.4 °F 44.6 °F 49% 30.06 in - NE 8.1 mph - N/A   Clear
7:50 PM 62.6 °F 46.4 °F 55% 30.06 in - NNE 12.7 mph - N/A   Clear
8:00 PM 62 °F 46 °F 44% 30.07 in - NNE 6.9 mph - -  
8:50 PM 60.8 °F 48.2 °F 63% 30.06 in - NNE 16.1 mph - N/A   Clear
9:50 PM 60.8 °F 48.2 °F 63% 30.06 in - NNE 15.0 mph - N/A   Clear